Regional Weather Roundup
Issued by NWS

Home | Current Version | Previous Version | Graphics & Text | Print | Product List | Glossary Off
Versions: 1 2 3 4 5 6 7 8 9 10 11 12 13 14 15 16 17 18 19 20 21 22 23 24 25 26 27 28 29 30 31 32 33 34 35 36 37 38 39 40 41 42 43 44 45 46 47 48 49 50

000
ASUS43 KMKX 261011
RWRWI

WISCONSIN REGIONAL WEATHER ROUNDUP
NATIONAL WEATHER SERVICE MILWAUKEE/SULLIVAN WI
500 AM CDT FRI AUG 26 2016

NOTE: "FAIR" INDICATES FEW OR NO CLOUDS BELOW 12,000 FEET WITH NO
SIGNIFICANT WEATHER AND/OR OBSTRUCTIONS TO VISIBILITY.

WIZ001-002-006>008-014>016-023>028-261100-
NORTHWEST WISCONSIN

CITY           SKY/WX    TMP DP  RH WIND       PRES   REMARKS
SUPERIOR ARPT  FAIR      53  52  97 SW5       30.10R
ASHLAND        CLOUDY    56  54  93 SW6       30.09S
HAYWARD        FOG       50  48  93 CALM      30.13R VSB 1/2
SIREN          FAIR      54  53  97 CALM      30.14R
CUMBERLAND     FAIR      52  50  93 CALM      30.13S
RICE LAKE        N/A     52  51  95 CALM      30.15R FOG
CHETEK         NOT AVBL
LADYSMITH      FAIR      54  52  95 SW3       30.14S
EAU CLAIRE     FAIR      55  54  96 SW5       30.13R
MENOMONIE      FAIR      55  53  93 CALM      30.14R
NEW RICHMOND   FAIR      53  53 100 CALM      30.15S
OSCEOLA        FAIR      51  51 100 CALM      30.17S
$$

WIZ003>005-009-010-017-018-261100-
NORTH CENTRAL WISCONSIN

CITY           SKY/WX    TMP DP  RH WIND       PRES   REMARKS
MANITOWISH WTR NOT AVBL
ARBOR VITAE    FAIR      55  53  94 CALM      30.10S
WOODRUFF       FAIR      55  53  94 CALM      30.10S
RHINELANDER    FAIR      52  52 100 W6        30.11S
EAGLE RIVER    FAIR      50  50 100 CALM      30.10S FOG
LAND O LAKES   MOCLDY    53  53 100 CALM      30.10S
PHILLIPS       MOCLDY    52  52 100 CALM      30.11S
TOMAHAWK       FAIR      49  48  97 CALM      30.12S
MEDFORD        FAIR      50  50 100 W3        30.12S
MERRILL        FAIR      53  53 100 CALM      30.12S
$$

WIZ029-030-035-036-043>047-261100-
CENTRAL WISCONSIN

CITY           SKY/WX    TMP DP  RH WIND       PRES   REMARKS
WAUSAU         FAIR      56  53  90 NW7       30.10S
MOSINEE        FAIR      54  52  94 W3        30.13S
MARSHFIELD     FAIR      54  51  90 W3        30.12S
STEVENS POINT  FAIR      52  51  97 CALM      30.13S
WAUPACA        FAIR      58  57  94 W3        30.12S
WAUTOMA        FAIR      54  54 100 CALM      30.14R
WISC RAPIDS    FAIR      56  55  97 W3        30.14S
CAMP DOUGLAS   CLEAR     52  52 100 CALM      30.13S
$$

WIZ011>013-019>022-031-037>040-048>050-261100-
NORTHEAST WISCONSIN

CITY           SKY/WX    TMP DP  RH WIND       PRES   REMARKS
ANTIGO         FAIR      51  51  99 CALM      30.11S
SHAWANO        FAIR      57  54  89 CALM      30.11R
OCONTO         NOT AVBL
STURGEON BAY   FAIR      62  56  80 NW7       30.09S
GREEN BAY      FAIR      55  55 100 W3        30.10R
MANITOWOC      FAIR      56  54  93 MISG      30.11S
APPLETON       FAIR      55  55 100 W7        30.10S
CLINTONVILLE   FAIR      55  54  94 CALM      30.11R
OSHKOSH        FAIR      59  55  87 W5        30.12R
$$

WIZ032>034-041-042-053>061-261100-
SOUTHWEST WISCONSIN

CITY           SKY/WX    TMP DP  RH WIND       PRES   REMARKS
LA CROSSE      FAIR      58  58 100 CALM      30.14R
SPARTA         FAIR      51  51 100 CALM      30.15S
VIROQUA        FAIR      56  56 100 CALM      30.15S
BOSCOBEL       FOG       60  59  96 CALM      30.15S VSB 1/4
PRAIRIE DU CHI FAIR      59  57  94 CALM      30.15R
PLATTEVILLE    FAIR      59  59 100 CALM      30.16R
$$

WIZ056-057-062-063-064-067-068-261100-
SOUTH CENTRAL WISCONSIN

CITY           SKY/WX    TMP DP  RH WIND       PRES   REMARKS
REEDSBURG      NOT AVBL
BARABOO/DELLS  FAIR      56  54  93 CALM      30.14S
LONE ROCK      FOG       59  59 100 CALM      30.15S VSB 1/4
MINERAL POINT  FAIR      59  59 100 CALM      30.15S
MADISON        FAIR      59  58  96 CALM      30.14R
MIDDLETON      FAIR      58  58 100 CALM      30.15R
WATERTOWN      FAIR      60  60 100 CALM      30.13R
MONROE         FAIR      63  59  88 N8        30.14R
JANESVILLE     FAIR      61  59  94 CALM      30.13R FOG
$$

WIZ051-052-058>065-066-070>072-261100-
SOUTHEAST WISCONSIN

CITY           SKY/WX    TMP DP  RH WIND       PRES   REMARKS
MILWAUKEE      FAIR      67  59  75 NW6       30.12R
WAUKESHA       FAIR      61  55  82 NW5       30.14R
MILWAUKEE/TIMM FAIR      61  55  82 CALM      30.13R
RACINE         FAIR      64  61  90 NW6       30.13R
BURLINGTON       N/A     56  55  98 CALM      30.13R FOG
KENOSHA        FAIR      64  60  87 NW5       30.13R
FOND DU LAC    FAIR      59  56  89 W7        30.12S
SHEBOYGAN      FAIR      58  55  90 CALM      30.11S
WEST BEND      FAIR      59  55  88 W3        30.13R
JUNEAU         FAIR      58  56  93 CALM      30.14R
$$

LSZ147-162-261100-
LAKE SUPERIOR

STATION/POSITION TIME  TEMP    WIND        PRES    WAVE
                       AIR SEA DIR/SP/G            HT/PER
                 (UTC) (F)     (DEG/KT/KT) (MB)    (FT/S)
W MID LAKE BUOY  0950   64 65  320/ 12/ 12 1016.6R   2/ 5
DEVILS ISLAND    1000   62     300/ 12/ 15 1018.5R
PORT WING        0900   63     290/ 11/ 15 1018.6R
SAXON HARBOR     0940   60     220/  7/  9 1018.3R
$$

LMZ867-665-643>646-261100-
LAKE MICHIGAN

STATION/POSITION TIME  TEMP    WIND        PRES    WAVE
                       AIR SEA DIR/SP/G            HT/PER
                 (UTC) (F)     (DEG/KT/KT) (MB)    (FT/S)
CHAMBERS ISLAND  0900   63     250/  4/  8 1017.9R
N MID LAKE BUOY  0950   66 70  280/ 12/ 14 1017.3R   1/ 4
NORTHPORT PIER   0900   65     280/  7/ 11 1017.9R
SISTER BAY       0837   66     310/ 16/ 18   N/A
KEWAUNEE LAKESHO 0900   61     280/  2/  3 1018.4R
SHEBOYGAN LAKESH 1000   64     290/  4/  5 1019.0R
PORT WASHINGTON  0900   65     300/  5/  7 1020.3R
ATWATER BUOY     1000   59 50  300/  6/  8   N/A
MILWAUKEE LAKESH 0910   67     290/  4/  5   N/A
S MID LAKE BUOY  0950   72 74  350/ 14/ 16 1018.5R   2/ 4
KENOSHA   LAKESH 1000   66     310/  8/ 11 1019.6R
$$

TC  - TEMPERATURE IN CELSIUS
VSB - VISIBILITY IN STATUTE MILES
WCI - WIND CHILL INDEX
HX  - HEAT INDEX





USA.gov is the U.S. government's official web portal to all federal, state and local government web resources and services.